Oakland, CA

10:19 AM PDT on April 28, 2017 (GMT -0700)
Metro Oakland International

Weather History for KOAK - November, 2011

Change the Weather History Date:

Monday, November 14, 2011

  Actual Average Record
Temperature  
Mean Temperature 59 °F 55 °F  
Max Temperature 66 °F 64 °F 82 °F (2008)
Min Temperature 51 °F 46 °F 37 °F (2000)
Degree Days  
Heating Degree Days 6 10  
Month to date heating degree days 105 123  
Since 1 July heating degree days 464 475  
Cooling Degree Days 0 0  
Month to date cooling degree days 0 0  
Year to date cooling degree days 152 137  
Growing Degree Days 8 (Base 50)    
Moisture  
Dew Point 47 °F    
Average Humidity 63    
Maximum Humidity 77    
Minimum Humidity 48    
Precipitation  
Precipitation 0.00 in 0.08 in 0.68 in (1968)
Month to date precipitation 0.74 1.06  
Year to date precipitation 15.24 15.76  
Since 1 July precipitation 2.43  
Sea Level Pressure  
Sea Level Pressure 30.03 in    
Wind  
Wind Speed 6 mph (WNW)    
Max Wind Speed 17 mph    
Max Gust Speed 25 mph    
Visibility 10 miles    
Events      
T = Trace of Precipitation, MM = Missing Value Source: NWS Daily Summary

Daily Weather History Graph

Daily Weather History Graph

Search for Another Location

Airport or City:

Trip Planner

Search our weather history database for the weather conditions in past years. The results will help you decide how hot, cold, wet, or windy it might be!

Date:

Astronomy

Nov. 14, 2011 Rise Set
Actual Time 6:47 AM PST 4:58 PM PST
Civil Twilight 6:19 AM PST 5:26 PM PST
Nautical Twilight 5:48 AM PST 5:57 PM PST
Astronomical Twilight 5:17 AM PST 6:28 PM PST
Moon 8:12 PM PST (11/14) 10:08 AM PST (11/14)
Length of Visible Light 11h 06m
Length of Day
10h 10m
Waning Gibbous, 86% of the Moon is Illuminated
Nov 14
Waning Gibbous
Nov 18
Last Quarter
Nov 24
New
Dec 2
First Quarter
Dec 10
Full

Hourly Weather History & Observations

Time (PST) Temp. Dew Point Humidity Pressure Visibility Wind Dir Wind Speed Gust Speed Precip Events Conditions
12:53 AM 57.9 °F 48.9 °F 72% 30.01 in 10.0 mi West 10.4 mph - N/A   Mostly Cloudy
1:53 AM 59.0 °F 48.2 °F 67% 30.02 in 10.0 mi WSW 16.1 mph - N/A   Overcast
2:53 AM 59.0 °F 48.9 °F 69% 30.01 in 10.0 mi West 11.5 mph - N/A   Overcast
3:53 AM 57.9 °F 48.0 °F 70% 29.99 in 10.0 mi West 9.2 mph - N/A   Scattered Clouds
4:01 AM 57.2 °F 48.2 °F 72% 30.00 in 10.0 mi West 8.1 mph - N/A   Mostly Cloudy
4:10 AM 57.2 °F 48.2 °F 72% 30.00 in 10.0 mi WNW 8.1 mph - N/A   Partly Cloudy
4:38 AM 55.4 °F 48.2 °F 77% 30.00 in 10.0 mi WNW 3.5 mph - N/A   Mostly Cloudy
4:53 AM 57.0 °F 48.0 °F 72% 30.00 in 10.0 mi West 3.5 mph - N/A   Partly Cloudy
5:53 AM 54.0 °F 46.0 °F 75% 30.01 in 10.0 mi Calm Calm - N/A   Partly Cloudy
6:53 AM 52.0 °F 45.0 °F 77% 30.02 in 7.0 mi Calm Calm - N/A   Partly Cloudy
7:53 AM 55.9 °F 48.9 °F 77% 30.04 in 10.0 mi Calm Calm - N/A   Partly Cloudy
8:53 AM 60.1 °F 48.0 °F 64% 30.06 in 10.0 mi North 3.5 mph - N/A   Partly Cloudy
9:53 AM 61.0 °F 46.0 °F 58% 30.06 in 10.0 mi NW 5.8 mph - N/A   Partly Cloudy
10:53 AM 63.0 °F 45.0 °F 52% 30.05 in 10.0 mi WNW 10.4 mph - N/A   Partly Cloudy
11:53 AM 64.0 °F 45.0 °F 50% 30.04 in 10.0 mi WNW 12.7 mph - N/A   Partly Cloudy
12:53 PM 64.0 °F 46.9 °F 54% 30.01 in 10.0 mi WNW 13.8 mph - N/A   Partly Cloudy
1:53 PM 64.9 °F 48.0 °F 54% 30.00 in 10.0 mi WNW 12.7 mph - N/A   Partly Cloudy
2:53 PM 64.9 °F 48.9 °F 56% 29.99 in 10.0 mi WNW 9.2 mph - N/A   Partly Cloudy
3:53 PM 64.9 °F 48.9 °F 56% 29.99 in 10.0 mi WNW 8.1 mph - N/A   Partly Cloudy
4:53 PM 63.0 °F 48.9 °F 60% 30.00 in 10.0 mi NW 6.9 mph - N/A   Partly Cloudy
5:53 PM 61.0 °F 48.9 °F 64% 30.02 in 10.0 mi NW 6.9 mph - N/A   Partly Cloudy
6:53 PM 59.0 °F 48.0 °F 67% 30.04 in 10.0 mi Calm Calm - N/A   Clear
7:53 PM 57.9 °F 46.9 °F 67% 30.05 in 10.0 mi Calm Calm - N/A   Clear
8:53 PM 55.4 °F 48.2 °F 77% 30.07 in 10.0 mi NW 3.5 mph - N/A   Clear
9:53 PM 55.0 °F 46.9 °F 74% 30.08 in 10.0 mi ESE 3.5 mph - N/A   Clear
10:53 PM 54.0 °F 46.0 °F 75% 30.08 in 10.0 mi Calm Calm - N/A   Clear
11:53 PM 51.1 °F 44.1 °F 77% 30.09 in 8.0 mi NE 3.5 mph - N/A   Clear